Location: Cardiff
(53.7833°N, 113.6000°W)
Time: 22:27:52
(UTC+00:00)

Oscar 19 - Pass Details

Date: 03 December 2023
Orbit: 771 x 789 km, 98.9° (Epoch: 04 March)

Event Time Altitude Azimuth Distance (km) Brightness Sun altitude
Rises 01:01:48 0° 224° (SW) 3,239 15.0 -14.5°
Reaches altitude 10° 01:05:51 10° 256° (WSW) 2,319 14.5 -15.0°
Maximum altitude 01:07:38 12° 277° (W) 2,204 14.0 -15.3°
Drops below altitude 10° 01:09:25 10° 298° (WNW) 2,326 13.8 -15.5°
Sets 01:13:30 0° 330° (NNW) 3,263 14.1 -16.1°
